[Iaude] MPEC W160: 2023 FS14 [a=2.68,e=0.65,i=11.6,H=21.40]
    mpec at marsden.cfa.harvard.edu 
    mpec at marsden.cfa.harvard.edu
       
    Thu Nov 30 14:00:02 EST 2023
    
    
  
M.P.E.C. 2023-W160                            Issued 2023 November 30, 18:58 UT
     The Minor Planet Electronic Circulars contain information on unusual
         minor planets, routine data on comets and natural satellites,
         and occasional editorial announcements.  They are published
    on behalf of Division F of the International Astronomical Union by the
          Minor Planet Center, Smithsonian Astrophysical Observatory,
                          Cambridge, MA 02138, U.S.A.
			  
             Prepared using the Tamkin Foundation Computer Network
                              MPC at CFA.HARVARD.EDU
            URL https://www.minorplanetcenter.net/    ISSN 1523-6714
                                   2023 FS14                                    
                           Revision to MPEC 2023-G55                            
Additional Observations:
     K23F14S  C2001 05 17.21882312 48 59.02 +62 41 02.0          20.3 r EW160645
     K23F14S  C2001 05 17.21965212 48 58.97 +62 41 04.5          20.1 i EW160645
     K23F14S  C2001 05 17.22048112 48 58.91 +62 41 07.0          22.5 u EW160645
     K23F14S  C2001 05 17.22131012 48 58.85 +62 41 09.5          20.2 z EW160645
     K23F14S  C2001 05 17.22214012 48 58.79 +62 41 12.1          20.9 g EW160645
     K23F14S  C2001 05 18.20090412 48 55.55 +63 33 08.0          20.4 r EW160645
     K23F14S  C2001 05 18.20173312 48 55.45 +63 33 10.6          20.2 i EW160645
     K23F14S  C2001 05 18.20256312 48 55.40 +63 33 13.2          22.2 u EW160645
     K23F14S  C2001 05 18.20339212 48 55.35 +63 33 15.9          20.3 z EW160645
     K23F14S  C2001 05 18.20422112 48 55.25 +63 33 18.5          20.9 g EW160645
Observer details:
645 Apache Point-Sloan Digital Sky Survey.  Observer .  Measurer S. Deen.
    2.5-m reflector + CCD.
First and last observations above in comparison with prediction:
Residuals in seconds of arc (or two decimals in degrees), reference and Delta-T
010517 645 0.45- 0.46-    010518 645 0.45- 0.49-    MPO782813   +0.00 days
Orbital elements:
2023 FS14                                           PHA, Earth MOID = 0.0179 AU
Epoch 2023 Sept. 13.0 TT = JDT 2460200.5                Veres                   
M  18.94339              (2000.0)            P               Q                  
n   0.22470667     Peri.  151.90375     -0.05223653     +0.98166107             
a   2.6795307      Node   114.59721     -0.94985098     +0.00783922             
e   0.6473145      Incl.   11.63260     -0.30830904     -0.19047335             
P   4.39           H   21.40          G   0.15           U   0                  
Residuals in seconds of arc
010517 645  0.4+  0.0     230411 H21  0.6-  0.0     230508 G96  0.2-  0.2-
010517 645  0.2+  0.1-    230411 H21  0.4-  0.1+    230508 G96  0.1+  0.2-
010517 645  0.0   0.1-    230411 H21  0.0   0.1-    230508 G96  0.1-  0.2-
010517 645  0.2-  0.2-    230411 I52  0.4-  0.5+    230523 I52  0.1+  0.1+
010517 645  0.4-  0.1-    230411 I52  0.1-  0.1-    230523 I52  0.2-  0.0
010518 645  0.6+  0.2+    230411 H01  0.0   0.0     230523 I52  0.1-  0.2-
010518 645  0.1+  0.1+    230411 H01  0.0   0.1+    230523 I52  0.0   0.0
010518 645  0.1-  0.1+    230411 H01  0.0   0.0     230531 291  0.1+  0.1-
010518 645  0.2-  0.1+    230411 H01  0.0   0.0     230531 291  0.1+  0.0
010518 645  0.7-  0.1+    230415 T12  0.0   0.0     230531 291  0.7-  0.3-
230318 V00  0.1-  0.1-    230415 T12  0.0   0.0     230601 291  0.1+  0.0
230318 V00  0.1-  0.1+    230417 V06  0.0   0.2-    230601 291  0.1-  0.1-
230318 V00  0.1+  0.1+    230417 V06  0.2-  0.2-    230601 291  0.2-  0.6+
230318 V00  0.3+  0.2-    230417 V06  0.1-  0.0     230609 I52  0.2+  0.3-
230318 G96  0.1+  0.5+    230417 V06  0.0   0.1+    230609 I52  0.2-  0.1-
230318 G96  0.7+  0.1+    230422 G96  0.1+  0.1+    230609 I52  0.3-  0.6-
230410 G96  0.4-  0.2-    230422 G96  0.2+  0.3-    230609 I52  0.1-  0.1+
230410 G96  0.1-  0.2-    230422 G96  0.1+  0.2+    230615 I52  0.0   0.1+
230410 G96  0.3+  0.5+    230422 G96  0.5+  0.1-    230615 I52  0.0   0.1-
230410 G96  0.4-  0.3+    230508 G96  0.3-  0.4-    230615 I52  0.1-  0.2+
230410 I52  0.3+  0.2-    230508 G96  0.1+  0.1+    230615 I52  0.1-  0.2-
230410 I52  0.2+  0.3-    230508 G96  0.1+  0.3-    230710 I52  0.5+  0.4+
230410 I52  0.1+  0.0     230508 G96  0.0   0.2+    230710 I52  0.2-  0.1+
230410 I52  0.0   0.1-    230508 G96  0.0   0.5+    230710 I52  0.2-  0.1-
Ephemeris:
2023 FS14                a,e,i = 2.68, 0.65, 12                  q = 0.9450
Date    TT    R. A. (2000) Decl.     Delta      r    Elong.  Phase     V
2023 10 31    23 47 43.9 -22 49 33   1.1021  1.8834   128.0    24.6    24.1
...
2023 11 15    23 53 46.9 -19 30 39   1.3560  2.0107   117.2    26.0    24.8
...
2023 11 23    23 58 52.7 -17 44 38   1.5011  2.0771   111.5    26.3    25.1
...
2023 11 29    00 03 22.1 -16 25 53   1.6134  2.1261   107.3    26.3    25.3
2023 11 30    00 04 09.9 -16 12 50   1.6324  2.1342   106.6    26.3    25.3
2023 12 01    00 04 58.4 -15 59 49   1.6514  2.1423   105.9    26.3    25.3
...
2023 12 07    00 10 05.2 -14 42 16   1.7672  2.1906   101.7    26.1    25.5
...
2023 12 15    00 17 30.9 -13 00 26   1.9245  2.2538    96.2    25.7    25.8
...
2023 12 30    00 32 56.8 -09 55 03   2.2254  2.3694    86.0    24.5    26.1
A. U. Tomatic                (C) Copyright 2023 MPC           M.P.E.C. 2023-W160
    
    
More information about the Iaude
mailing list